TimeCST,TemperatureF,Dew PointF,Humidity,Sea Level PressureIn,VisibilityMPH,Wind Direction,Wind SpeedMPH,Gust SpeedMPH,PrecipitationIn,Events,Conditions,WindDirDegrees,DateUTC
1:51 AM,23.0,15.1,72,30.27,10.0,WSW,4.6,-,N/A,,Clear,250,2012-12-29 07:51:00
2:51 AM,21.9,15.1,75,30.30,10.0,SW,5.8,-,N/A,,Clear,230,2012-12-29 08:51:00
3:51 AM,23.0,14.0,68,30.31,10.0,WSW,5.8,-,N/A,,Clear,250,2012-12-29 09:51:00
4:51 AM,21.0,14.0,74,30.32,10.0,WSW,4.6,-,N/A,,Clear,250,2012-12-29 10:51:00
5:51 AM,21.0,12.9,71,30.34,10.0,SW,6.9,-,N/A,,Clear,230,2012-12-29 11:51:00
6:51 AM,21.0,12.9,71,30.37,10.0,WSW,4.6,-,N/A,,Clear,250,2012-12-29 12:51:00
7:51 AM,18.0,12.0,78,30.38,10.0,West,3.5,-,N/A,,Clear,280,2012-12-29 13:51:00
8:51 AM,21.0,12.9,71,30.40,10.0,West,3.5,-,N/A,,Clear,260,2012-12-29 14:51:00
9:51 AM,28.0,16.0,61,30.43,10.0,West,8.1,-,N/A,,Clear,260,2012-12-29 15:51:00
10:51 AM,34.0,16.0,48,30.43,10.0,WSW,4.6,-,N/A,,Clear,250,2012-12-29 16:51:00
11:51 AM,37.9,15.1,39,30.41,10.0,West,3.5,-,N/A,,Clear,270,2012-12-29 17:51:00
12:51 PM,43.0,12.9,30,30.36,10.0,Variable,4.6,-,N/A,,Clear,0,2012-12-29 18:51:00
1:51 PM,44.1,9.0,24,30.32,10.0,SW,6.9,-,N/A,,Clear,230,2012-12-29 19:51:00
2:51 PM,45.0,8.1,22,30.32,10.0,SW,10.4,19.6,N/A,,Clear,220,2012-12-29 20:51:00
3:51 PM,46.0,12.0,25,30.30,10.0,Variable,5.8,-,N/A,,Clear,0,2012-12-29 21:51:00
4:51 PM,46.0,12.0,25,30.28,10.0,South,8.1,-,N/A,,Clear,190,2012-12-29 22:51:00
5:51 PM,42.1,14.0,32,30.28,10.0,South,6.9,-,N/A,,Clear,180,2012-12-29 23:51:00
6:51 PM,39.9,12.9,33,30.28,10.0,South,9.2,-,N/A,,Clear,180,2012-12-30 00:51:00
7:51 PM,37.9,12.9,36,30.31,10.0,South,12.7,18.4,N/A,,Clear,180,2012-12-30 01:51:00
8:51 PM,35.1,12.0,39,30.31,10.0,South,12.7,-,N/A,,Clear,170,2012-12-30 02:51:00
9:51 PM,34.0,12.9,42,30.28,10.0,South,11.5,19.6,N/A,,Clear,180,2012-12-30 03:51:00
10:51 PM,33.1,12.9,43,30.27,10.0,South,11.5,19.6,N/A,,Clear,170,2012-12-30 04:51:00
11:51 PM,33.1,12.9,43,30.25,10.0,South,12.7,-,N/A,,Clear,180,2012-12-30 05:51:00